Peyton, CO

9:26 AM MST on December 04, 2016 (GMT -0700)
Meadow Lake

Weather History for KFLY - January, 2013

Change the Weather History Date:

Saturday, January 19, 2013

  Actual Average (KCOS) Record (KCOS)
Temperature  
Mean Temperature 39 °F 31 °F  
Max Temperature 52 °F 43 °F 70 °F (1986)
Min Temperature 26 °F 18 °F -17 °F (1943)
Degree Days  
Heating Degree Days 26 34  
Month to date heating degree days 656  
Since 1 July heating degree days 3228  
Cooling Degree Days 0 0  
Month to date cooling degree days 0  
Year to date cooling degree days 0  
Moisture  
Dew Point 0 °F    
Average Humidity 21    
Maximum Humidity 37    
Minimum Humidity 11    
Precipitation  
Precipitation 0.00 in 0.02 in 0.39 in (1990)
Month to date precipitation 0.19  
Year to date precipitation 0.19  
Snow  
Snow 0.00 in 0.20 in 5.70 in (1990)
Month to date snowfall 3.4  
Since 1 July snowfall 16.9  
Snow Depth -    
Sea Level Pressure  
Sea Level Pressure 30.22 in    
Wind  
Wind Speed 9 mph (West)    
Max Wind Speed 16 mph    
Max Gust Speed 25 mph    
Visibility 10 miles    
Events      
T = Trace of Precipitation, MM = Missing Value Source: NWS Daily Summary

Daily Weather History Graph

Daily Weather History Graph

Search for Another Location

Airport or City:

Trip Planner

Search our weather history database for the weather conditions in past years. The results will help you decide how hot, cold, wet, or windy it might be!

Date:

Astronomy

Jan. 19, 2013 Rise Set
Actual Time 7:13 AM MST 5:05 PM MST
Civil Twilight 6:44 AM MST 5:34 PM MST
Nautical Twilight 6:12 AM MST 6:06 PM MST
Astronomical Twilight 5:40 AM MST 6:38 PM MST
Moon 11:32 AM MST (1/19) 12:51 AM MST (1/19)
Length of Visible Light 10h 49m
Length of Day
9h 51m
First Quarter, 58% of the Moon is Illuminated
Jan 19
First Quarter
Jan 26
Full
Feb 3
Last Quarter
Feb 10
New
Feb 17
First Quarter

Hourly Weather History & Observations

Time (MST) Temp. Windchill Dew Point Humidity Pressure Visibility Wind Dir Wind Speed Gust Speed Precip Events Conditions
12:14 AM 29.7 °F 21.3 °F -2.0 °F 26% 30.11 in 10.0 mi WNW 9.2 mph - N/A   Clear
12:34 AM 29.7 °F 20.7 °F -2.4 °F 25% 30.11 in 10.0 mi WNW 10.4 mph - N/A   Clear
12:54 AM 31.8 °F 23.9 °F -1.7 °F 24% 30.11 in 10.0 mi WNW 9.2 mph - N/A   Clear
1:14 AM 31.3 °F 23.3 °F -1.8 °F 24% 30.11 in 10.0 mi WNW 9.2 mph - N/A   Clear
1:34 AM 32.0 °F 26.4 °F -2.2 °F 23% 30.12 in 10.0 mi WSW 5.8 mph - N/A   Clear
1:54 AM 34.9 °F 29.9 °F -1.5 °F 21% 30.12 in 10.0 mi West 5.8 mph - N/A   Clear
2:14 AM 32.9 °F 28.5 °F -0.8 °F 24% 30.13 in 10.0 mi NW 4.6 mph - N/A   Clear
2:34 AM 35.6 °F 28.6 °F -0.4 °F 22% 30.13 in 10.0 mi NW 9.2 mph - N/A   Clear
2:54 AM 36.5 °F 28.7 °F -0.8 °F 21% 30.13 in 10.0 mi NNW 11.5 mph - N/A   Clear
3:14 AM 36.7 °F 28.4 °F -1.3 °F 20% 30.12 in 10.0 mi NW 12.7 mph - N/A   Clear
3:34 AM 38.5 °F 29.6 °F -1.3 °F 19% 30.12 in 10.0 mi NW 16.1 mph 23.0 mph N/A   Clear
3:54 AM 37.9 °F 30.0 °F -1.1 °F 19% 30.13 in 10.0 mi NW 12.7 mph 19.6 mph N/A   Clear
4:14 AM 37.6 °F 30.0 °F -1.3 °F 19% 30.15 in 10.0 mi NW 11.5 mph - N/A   Clear
4:34 AM 33.3 °F 27.1 °F -1.3 °F 23% 30.16 in 10.0 mi NNW 6.9 mph - N/A   Clear
4:54 AM 30.6 °F 23.8 °F -1.3 °F 26% 30.16 in 10.0 mi NW 6.9 mph - N/A   Clear
5:14 AM 28.8 °F 20.9 °F -1.3 °F 27% 30.18 in 10.0 mi NW 8.1 mph - N/A   Clear
5:34 AM 26.1 °F 16.8 °F -1.5 °F 30% 30.18 in 10.0 mi NW 9.2 mph - N/A   Clear
5:54 AM 30.9 °F 22.8 °F -1.3 °F 25% 30.19 in 10.0 mi NNW 9.2 mph - N/A   Clear
6:14 AM 30.7 °F 22.6 °F -1.3 °F 25% 30.20 in 10.0 mi NNW 9.2 mph - N/A   Clear
6:34 AM 34.5 °F 27.3 °F -1.7 °F 21% 30.20 in 10.0 mi NNW 9.2 mph - N/A   Clear
6:54 AM 33.1 °F 24.4 °F -1.3 °F 23% 30.21 in 10.0 mi North 11.5 mph - N/A   Clear
7:14 AM 32.4 °F 25.3 °F -1.3 °F 24% 30.22 in 10.0 mi NNW 8.1 mph - N/A   Clear
7:34 AM 34.3 °F 27.7 °F -1.3 °F 22% 30.23 in 10.0 mi NNW 8.1 mph - N/A   Clear
7:54 AM 32.2 °F 24.4 °F -0.2 °F 25% 30.24 in 10.0 mi NNW 9.2 mph - N/A   Clear
8:14 AM 35.2 °F 29.5 °F 0.5 °F 23% 30.24 in 10.0 mi NNW 6.9 mph - N/A   Clear
8:34 AM 39.0 °F 34.0 °F 0.5 °F 20% 30.26 in 10.0 mi NW 6.9 mph - N/A   Clear
8:54 AM 43.3 °F 38.6 °F 0.1 °F 17% 30.26 in 10.0 mi WNW 8.1 mph - N/A   Clear
9:14 AM 46.0 °F 41.0 °F -0.6 °F 14% 30.28 in 10.0 mi WNW 10.4 mph - N/A   Clear
9:34 AM 47.5 °F - -0.9 °F 13% 30.29 in 10.0 mi NW 11.5 mph - N/A   Clear
9:54 AM 48.4 °F - -1.1 °F 13% 30.29 in 10.0 mi WNW 10.4 mph 16.1 mph N/A   Clear
10:14 AM 50.0 °F - -2.2 °F 12% 30.29 in 10.0 mi West 8.1 mph - N/A   Clear
10:34 AM 50.5 °F - -2.2 °F 11% 30.29 in 10.0 mi WSW 9.2 mph - N/A   Clear
10:54 AM 51.3 °F - -1.1 °F 12% 30.29 in 10.0 mi WSW 6.9 mph - N/A   Clear
11:14 AM 51.3 °F - -2.2 °F 11% 30.28 in 10.0 mi SW 5.8 mph - N/A   Clear
11:34 AM 52.5 °F - -1.7 °F 11% 30.26 in 10.0 mi SW 10.4 mph 16.1 mph N/A   Clear
11:54 AM 52.0 °F - -0.9 °F 11% 30.26 in 10.0 mi SSW 10.4 mph 18.4 mph N/A   Clear
12:14 PM 52.0 °F - -0.9 °F 11% 30.25 in 10.0 mi SSW 11.5 mph 23.0 mph N/A   Clear
12:34 PM 52.5 °F - -0.2 °F 12% 30.24 in 10.0 mi SSW 10.4 mph 17.3 mph N/A   Clear
12:54 PM 52.3 °F - -0.9 °F 11% 30.24 in 10.0 mi SSW 11.5 mph 24.2 mph N/A   Clear
1:14 PM 52.0 °F - 0.1 °F 12% 30.23 in 10.0 mi SW 15.0 mph 25.3 mph N/A   Clear
1:34 PM 51.4 °F - -0.8 °F 12% 30.23 in 10.0 mi SSW 10.4 mph 20.7 mph N/A   Clear
1:54 PM 51.8 °F - -1.1 °F 11% 30.23 in 10.0 mi SSW 10.4 mph 21.9 mph N/A   Clear
2:14 PM 51.6 °F - -0.6 °F 12% 30.23 in 10.0 mi South 13.8 mph 24.2 mph N/A   Clear
2:34 PM 51.6 °F - -0.9 °F 12% 30.23 in 10.0 mi SSW 10.4 mph 21.9 mph N/A   Clear
2:54 PM 51.4 °F - -1.1 °F 12% 30.23 in 10.0 mi South 10.4 mph 20.7 mph N/A   Clear
3:14 PM 51.4 °F - -0.8 °F 12% 30.23 in 10.0 mi South 11.5 mph 18.4 mph N/A   Clear
3:34 PM 50.2 °F - -0.9 °F 12% 30.24 in 10.0 mi South 9.2 mph 19.6 mph N/A   Clear
3:54 PM 49.5 °F - -1.3 °F 12% 30.23 in 10.0 mi South 9.2 mph 18.4 mph N/A   Clear
4:14 PM 47.7 °F - -1.3 °F 13% 30.24 in 10.0 mi South 8.1 mph - N/A   Clear
4:34 PM 44.6 °F 40.2 °F -1.7 °F 15% 30.24 in 10.0 mi South 8.1 mph - N/A   Clear
4:54 PM 39.7 °F 34.3 °F -1.8 °F 17% 30.24 in 10.0 mi SSW 8.1 mph - N/A   Clear
5:14 PM 37.4 °F 30.8 °F -1.1 °F 20% 30.24 in 10.0 mi SSW 9.2 mph - N/A   Clear
5:34 PM 35.6 °F 29.2 °F -0.4 °F 22% 30.24 in 10.0 mi SSW 8.1 mph - N/A   Clear
5:54 PM 33.6 °F 26.2 °F 0.1 °F 24% 30.24 in 10.0 mi SSW 9.2 mph - N/A   Clear
6:14 PM 34.2 °F 26.8 °F 1.2 °F 25% 30.24 in 10.0 mi SSW 9.2 mph 16.1 mph N/A   Clear
6:34 PM 32.9 °F 25.3 °F 1.8 °F 27% 30.25 in 10.0 mi SSW 9.2 mph - N/A   Clear
6:54 PM 31.6 °F 26.0 °F 2.1 °F 29% 30.25 in 10.0 mi SW 5.8 mph - N/A   Clear
7:14 PM 32.5 °F - 2.8 °F 28% 30.25 in 10.0 mi Calm Calm - N/A   Clear
7:34 PM 33.3 °F 27.9 °F 2.5 °F 27% 30.26 in 10.0 mi West 5.8 mph - N/A   Clear
7:54 PM 31.5 °F 25.8 °F 3.2 °F 30% 30.25 in 10.0 mi West 5.8 mph - N/A   Clear
8:14 PM 31.6 °F 23.7 °F 2.7 °F 29% 30.25 in 10.0 mi WSW 9.2 mph - N/A   Clear
8:34 PM 34.3 °F 30.2 °F 3.2 °F 27% 30.25 in 10.0 mi West 4.6 mph - N/A   Clear
8:54 PM 32.0 °F 24.2 °F 3.0 °F 29% 30.24 in 10.0 mi WSW 9.2 mph - N/A   Clear
9:14 PM 32.0 °F - 2.8 °F 29% 30.24 in 10.0 mi Calm Calm - N/A   Clear
9:34 PM 30.0 °F 23.2 °F 2.5 °F 31% 30.24 in 10.0 mi WSW 6.9 mph - N/A   Clear
9:54 PM 31.1 °F 25.4 °F 2.8 °F 30% 30.23 in 10.0 mi WSW 5.8 mph - N/A   Clear
10:14 PM 31.8 °F 24.6 °F 3.0 °F 30% 30.22 in 10.0 mi West 8.1 mph - N/A   Clear
10:34 PM 30.7 °F 24.1 °F 3.4 °F 31% 30.22 in 10.0 mi West 6.9 mph - N/A   Clear
10:54 PM 29.3 °F 23.2 °F 3.2 °F 33% 30.22 in 10.0 mi NNW 5.8 mph - N/A   Clear
11:14 PM 28.2 °F 20.2 °F 3.2 °F 34% 30.20 in 10.0 mi West 8.1 mph - N/A   Clear
11:34 PM 27.0 °F 18.7 °F 3.6 °F 37% 30.19 in 10.0 mi West 8.1 mph - N/A   Clear
11:54 PM 27.9 °F 19.8 °F 3.7 °F 36% 30.18 in 10.0 mi West 8.1 mph - N/A   Clear